Location: Contre
(49.7477°N, 2.0963°E)
Time: 09:00:36
(UTC+00:00)

Okean O Rocket - Pass Details

Date: 03 February 2023
Orbit: 620 x 643 km, 98.1° (Epoch: 22 March)

Event Time Altitude Azimuth Distance (km) Brightness Sun altitude
Rises 17:40:14 0° 124° (SE) 2,919 4.6 -8.5°
Reaches altitude 10° 17:42:51 10° 108° (ESE) 2,020 3.7 -8.9°
Maximum altitude 17:46:06 21° 60° (ENE) 1,454 2.9 -9.4°
Drops below altitude 10° 17:49:22 10° 13° (NNE) 2,041 4.0 -9.9°
Sets 17:52:01 0° 357° (N) 2,959 4.9 -10.4°
